TimeEDT,TemperatureF,Dew PointF,Humidity,Sea Level PressureIn,VisibilityMPH,Wind Direction,Wind SpeedMPH,Gust SpeedMPH,PrecipitationIn,Events,Conditions,WindDirDegrees,DateUTC
12:53 AM,63.0,57.0,81,29.95,10.0,WNW,11.5,-,N/A,,Overcast,300,2013-04-06 04:53:00
1:53 AM,62.1,55.9,80,29.95,10.0,WNW,8.1,-,N/A,,Clear,290,2013-04-06 05:53:00
2:53 AM,61.0,57.0,87,29.95,10.0,WNW,6.9,-,N/A,,Partly Cloudy,290,2013-04-06 06:53:00
3:08 AM,60.8,57.2,88,29.94,10.0,WNW,5.8,-,N/A,,Mostly Cloudy,300,2013-04-06 07:08:00
3:53 AM,62.1,59.0,90,29.95,10.0,Calm,Calm,-,N/A,,Overcast,0,2013-04-06 07:53:00
4:39 AM,62.6,59.0,88,29.94,10.0,NNW,4.6,-,N/A,,Scattered Clouds,340,2013-04-06 08:39:00
4:53 AM,62.1,59.0,90,29.95,10.0,NNW,4.6,-,N/A,,Partly Cloudy,340,2013-04-06 08:53:00
5:53 AM,62.1,57.9,86,29.96,10.0,NNW,8.1,-,N/A,,Clear,330,2013-04-06 09:53:00
6:53 AM,60.1,57.0,90,29.98,10.0,NNW,4.6,-,N/A,,Scattered Clouds,330,2013-04-06 10:53:00
7:53 AM,59.0,55.9,90,30.02,10.0,NW,8.1,-,N/A,,Scattered Clouds,310,2013-04-06 11:53:00
8:00 AM,60.8,55.4,82,30.01,10.0,NNW,8.1,-,N/A,,Partly Cloudy,330,2013-04-06 12:00:00
8:53 AM,61.0,55.9,83,30.03,10.0,NNW,12.7,-,N/A,,Partly Cloudy,330,2013-04-06 12:53:00
9:53 AM,64.9,57.0,75,30.04,10.0,NNW,11.5,-,N/A,,Partly Cloudy,330,2013-04-06 13:53:00
10:53 AM,69.1,57.9,68,30.05,10.0,WNW,6.9,-,N/A,,Clear,300,2013-04-06 14:53:00
11:53 AM,73.0,59.0,61,30.05,10.0,North,9.2,-,N/A,,Scattered Clouds,360,2013-04-06 15:53:00
12:53 PM,77.0,60.1,56,30.04,10.0,NNE,8.1,-,N/A,,Scattered Clouds,20,2013-04-06 16:53:00
1:53 PM,78.1,61.0,56,30.03,10.0,NE,13.8,23.0,N/A,,Mostly Cloudy,50,2013-04-06 17:53:00
2:53 PM,78.1,61.0,56,30.03,10.0,NE,11.5,-,N/A,,Mostly Cloudy,50,2013-04-06 18:53:00
3:53 PM,77.0,61.0,58,30.03,10.0,ENE,15.0,-,N/A,,Scattered Clouds,70,2013-04-06 19:53:00
4:53 PM,77.0,61.0,58,30.02,10.0,NE,9.2,-,N/A,,Mostly Cloudy,50,2013-04-06 20:53:00
5:53 PM,77.0,59.0,54,30.04,10.0,NE,12.7,20.7,N/A,,Mostly Cloudy,40,2013-04-06 21:53:00
6:53 PM,73.9,57.9,57,30.05,10.0,NNE,8.1,18.4,N/A,,Scattered Clouds,30,2013-04-06 22:53:00
7:53 PM,73.0,57.9,59,30.06,10.0,NE,6.9,-,N/A,,Clear,40,2013-04-06 23:53:00
8:53 PM,72.0,57.9,61,30.07,10.0,NE,8.1,-,N/A,,Clear,40,2013-04-07 00:53:00
9:53 PM,72.0,57.9,61,30.07,10.0,NE,5.8,-,N/A,,Clear,50,2013-04-07 01:53:00
10:53 PM,72.0,60.1,66,30.09,10.0,ENE,6.9,-,N/A,,Partly Cloudy,60,2013-04-07 02:53:00
11:53 PM,72.0,60.1,66,30.10,10.0,ENE,8.1,-,N/A,,Clear,60,2013-04-07 03:53:00